Location: Long Barn
(38.0930°N, 120.1344°W)
Time: 03:03:29
(UTC+00:00)

Hubble Space Telescope - Pass Details

Date: 25 January 2026
Orbit: 478 x 480 km, 28.5° (Epoch: 9 February)

Event Time Altitude Azimuth Distance (km) Brightness Sun altitude
Rises 02:14:37 0° 223° (SW) 2,509 5.2 -11.9°
Reaches altitude 10° 02:17:48 10° 194° (SSW) 1,634 3.6 -12.5°
Maximum altitude 02:19:33 13° 166° (SSE) 1,466 3.0 -12.9°
Drops below altitude 10° 02:21:18 10° 138° (SE) 1,637 3.0 -13.2°
Enters shadow 02:21:53 - 131° (SE) 1,757 3.1 -13.3°
